Year,Month,Day,Hour,Minute,Value (Times are PST for temperature in C)
2010,03,18,00,00,4.20
2010,03,18,00,01,4.20
2010,03,18,00,02,4.20
2010,03,18,00,03,4.20
2010,03,18,00,04,4.20
2010,03,18,00,05,4.20
2010,03,18,00,06,4.20
2010,03,18,00,07,4.20
2010,03,18,00,08,4.20
2010,03,18,00,09,4.20
2010,03,18,00,10,4.20
2010,03,18,00,11,4.20
2010,03,18,00,27,3.90
2010,03,18,00,28,3.90
2010,03,18,00,29,3.90
2010,03,18,00,30,3.80
2010,03,18,00,31,3.80
2010,03,18,00,32,3.80
2010,03,18,00,33,3.80
2010,03,18,00,34,3.80
2010,03,18,00,35,3.80
2010,03,18,00,36,3.70
2010,03,18,00,37,3.70
2010,03,18,00,38,3.60
2010,03,18,00,39,3.60
2010,03,18,00,40,3.60
2010,03,18,00,41,3.50
2010,03,18,00,42,3.50
2010,03,18,00,43,3.50
2010,03,18,00,44,3.40
2010,03,18,00,45,3.40
2010,03,18,00,46,3.40
2010,03,18,00,47,3.40
2010,03,18,00,48,3.40
2010,03,18,00,49,3.40
2010,03,18,00,50,3.40
2010,03,18,00,51,3.40
2010,03,18,00,52,3.40
2010,03,18,00,53,3.40
2010,03,18,00,54,3.40
2010,03,18,00,55,3.40
2010,03,18,00,56,3.40
2010,03,18,00,57,3.40
2010,03,18,00,58,3.40
2010,03,18,00,59,3.40
2010,03,18,01,00,3.40
2010,03,18,01,01,3.40
2010,03,18,01,02,3.40
2010,03,18,01,03,3.40
2010,03,18,01,04,3.40
2010,03,18,01,05,3.30
2010,03,18,01,06,3.30
2010,03,18,01,07,3.30
2010,03,18,01,08,3.30
2010,03,18,01,09,3.30
2010,03,18,01,10,3.30
2010,03,18,01,11,3.30
2010,03,18,01,12,3.30
2010,03,18,01,13,3.30
2010,03,18,01,14,3.30
2010,03,18,01,15,3.30
2010,03,18,01,16,3.30
2010,03,18,01,17,3.30
2010,03,18,01,18,3.30
2010,03,18,01,19,3.30
2010,03,18,01,20,3.30
2010,03,18,01,21,3.30
2010,03,18,01,22,3.30
2010,03,18,01,23,3.40
2010,03,18,01,24,3.40
2010,03,18,01,25,3.40
2010,03,18,01,26,3.50
2010,03,18,01,27,3.50
2010,03,18,01,28,3.50
2010,03,18,01,29,3.50
2010,03,18,01,30,3.50
2010,03,18,01,31,3.50
2010,03,18,01,32,3.50
2010,03,18,01,33,3.50
2010,03,18,01,34,3.60
2010,03,18,01,35,3.60
2010,03,18,01,36,3.60
2010,03,18,01,37,3.60
2010,03,18,01,38,3.60
2010,03,18,01,39,3.50
2010,03,18,01,40,3.50
2010,03,18,01,41,3.50
2010,03,18,01,42,3.50
2010,03,18,01,43,3.50
2010,03,18,01,44,3.50
2010,03,18,01,45,3.50
2010,03,18,01,46,3.40
2010,03,18,01,47,3.40
2010,03,18,01,48,3.40
2010,03,18,01,49,3.40
2010,03,18,01,50,3.30
2010,03,18,01,51,3.30
2010,03,18,01,52,3.30
2010,03,18,01,53,3.30
2010,03,18,01,54,3.30
2010,03,18,01,55,3.30
2010,03,18,01,56,3.30
2010,03,18,01,57,3.30
2010,03,18,01,58,3.30
2010,03,18,01,59,3.30
2010,03,18,02,00,3.30
2010,03,18,02,01,3.30
2010,03,18,02,02,3.30
2010,03,18,02,03,3.30
2010,03,18,02,04,3.20
2010,03,18,02,05,3.20
2010,03,18,02,06,3.20
2010,03,18,02,07,3.20
2010,03,18,02,08,3.20
2010,03,18,02,09,3.20
2010,03,18,02,10,3.20
2010,03,18,02,11,3.20
2010,03,18,02,12,3.10
2010,03,18,02,13,3.10
2010,03,18,02,14,3.10
2010,03,18,02,15,3.10
2010,03,18,02,16,3.00
2010,03,18,02,17,2.90
2010,03,18,02,18,2.90
2010,03,18,02,19,2.90
2010,03,18,02,20,2.90
2010,03,18,02,21,2.90
2010,03,18,02,22,2.90
2010,03,18,02,23,2.90
2010,03,18,02,24,2.90
2010,03,18,02,25,2.90
2010,03,18,02,26,2.90
2010,03,18,02,27,2.90
2010,03,18,02,28,2.90
2010,03,18,02,29,2.90
2010,03,18,02,30,2.90
2010,03,18,02,31,2.90
2010,03,18,02,32,2.90
2010,03,18,02,33,3.00
2010,03,18,02,34,3.10
2010,03,18,02,35,3.10
2010,03,18,02,36,3.10
2010,03,18,02,37,3.20
2010,03,18,02,38,3.30
2010,03,18,02,39,3.30
2010,03,18,02,40,3.40
2010,03,18,02,41,3.50
2010,03,18,02,42,3.50
2010,03,18,02,43,3.50
2010,03,18,02,44,3.60
2010,03,18,02,45,3.60
2010,03,18,02,46,3.60
2010,03,18,02,47,3.70
2010,03,18,02,48,3.70
2010,03,18,02,49,3.70
2010,03,18,02,50,3.70
2010,03,18,02,51,3.70
2010,03,18,02,52,3.60
2010,03,18,02,53,3.60
2010,03,18,02,54,3.60
2010,03,18,02,55,3.60
2010,03,18,02,56,3.60
2010,03,18,02,57,3.60
2010,03,18,02,58,3.70
2010,03,18,02,59,3.70
2010,03,18,03,00,3.70
2010,03,18,03,01,3.80
2010,03,18,03,02,3.80
2010,03,18,03,03,3.80
2010,03,18,03,04,3.80
2010,03,18,03,05,3.80
2010,03,18,03,06,3.80
2010,03,18,03,07,3.80
2010,03,18,03,08,3.80
2010,03,18,03,09,3.80
2010,03,18,03,10,3.80
2010,03,18,03,11,3.80
2010,03,18,03,12,3.80
2010,03,18,03,13,3.80
2010,03,18,03,14,3.80
2010,03,18,03,15,3.80
2010,03,18,03,16,3.80
2010,03,18,03,17,3.80
2010,03,18,03,18,3.70
2010,03,18,03,19,3.70
2010,03,18,03,20,3.70
2010,03,18,03,21,3.70
2010,03,18,03,22,3.70
2010,03,18,03,23,3.70
2010,03,18,03,24,3.70
2010,03,18,03,25,3.70
2010,03,18,03,26,3.70
2010,03,18,03,27,3.70
2010,03,18,03,28,3.80
2010,03,18,03,29,3.80
2010,03,18,03,30,3.80
2010,03,18,03,31,3.80
2010,03,18,03,32,3.80
2010,03,18,03,33,3.80
2010,03,18,03,34,3.80
2010,03,18,03,35,3.80
2010,03,18,03,36,3.80
2010,03,18,03,37,3.90
2010,03,18,03,38,3.90
2010,03,18,03,39,3.90
2010,03,18,03,40,3.90
2010,03,18,03,41,3.90
2010,03,18,03,42,3.90
2010,03,18,03,43,3.90
2010,03,18,03,44,3.90
2010,03,18,03,45,3.90
2010,03,18,03,46,3.80
2010,03,18,03,47,3.80
2010,03,18,03,48,3.80
2010,03,18,03,49,3.80
2010,03,18,03,50,3.80
2010,03,18,03,51,3.80
2010,03,18,03,52,3.80
2010,03,18,03,53,3.70
2010,03,18,03,54,3.60
2010,03,18,03,55,3.60
2010,03,18,03,56,3.50
2010,03,18,03,57,3.40
2010,03,18,03,58,3.40
2010,03,18,03,59,3.30
2010,03,18,04,00,3.30
2010,03,18,04,01,3.20
2010,03,18,04,02,3.10
2010,03,18,04,03,3.10
2010,03,18,04,04,3.10
2010,03,18,04,05,3.00
2010,03,18,04,06,2.90
2010,03,18,04,07,2.90
2010,03,18,04,08,2.80
2010,03,18,04,09,2.80
2010,03,18,04,10,2.80
2010,03,18,04,11,2.80
2010,03,18,04,12,2.80
2010,03,18,04,13,2.90
2010,03,18,04,14,2.90
2010,03,18,04,15,2.90
2010,03,18,04,16,2.90
2010,03,18,04,17,3.10
2010,03,18,04,18,3.10
2010,03,18,04,19,3.10
2010,03,18,04,20,2.90
2010,03,18,04,21,2.90
2010,03,18,04,22,2.90
2010,03,18,04,23,2.90
2010,03,18,04,24,2.90
2010,03,18,04,25,2.90
2010,03,18,04,26,2.90
2010,03,18,04,27,2.90
2010,03,18,04,28,2.90
2010,03,18,04,29,2.90
2010,03,18,04,30,2.90
2010,03,18,04,31,2.90
2010,03,18,04,32,2.90
2010,03,18,04,33,2.90
2010,03,18,04,34,2.90
2010,03,18,04,35,2.90
2010,03,18,04,36,2.90
2010,03,18,04,37,2.90
2010,03,18,04,38,2.80
2010,03,18,04,39,2.80
2010,03,18,04,40,2.80
2010,03,18,04,41,2.70
2010,03,18,04,42,2.70
2010,03,18,04,43,2.70
2010,03,18,04,44,2.70
2010,03,18,04,45,2.70
2010,03,18,04,46,2.50
2010,03,18,04,47,2.50
2010,03,18,04,48,2.50
2010,03,18,04,49,2.40
2010,03,18,04,50,2.40
2010,03,18,04,51,2.30
2010,03,18,04,52,2.20
2010,03,18,04,53,2.20
2010,03,18,04,54,2.10
2010,03,18,04,55,2.10
2010,03,18,04,56,2.20
2010,03,18,04,57,2.20
2010,03,18,04,58,2.20
2010,03,18,04,59,2.20
2010,03,18,05,00,2.20
2010,03,18,05,01,2.20
2010,03,18,05,02,2.20
2010,03,18,05,03,2.20
2010,03,18,05,04,2.20
2010,03,18,05,05,2.20
2010,03,18,05,06,2.20
2010,03,18,05,07,2.20
2010,03,18,05,08,2.20
2010,03,18,05,09,2.10
2010,03,18,05,10,2.10
2010,03,18,05,11,2.10
2010,03,18,05,12,2.10
2010,03,18,05,13,2.00
2010,03,18,05,14,2.00
2010,03,18,05,15,2.00
2010,03,18,05,16,1.90
2010,03,18,05,17,1.90
2010,03,18,05,18,1.90
2010,03,18,05,19,1.80
2010,03,18,05,20,1.80
2010,03,18,05,21,1.80
2010,03,18,05,22,1.80
2010,03,18,05,23,1.80
2010,03,18,05,24,1.70
2010,03,18,05,25,1.70
2010,03,18,05,26,1.70
2010,03,18,05,27,1.70
2010,03,18,05,28,1.70
2010,03,18,05,29,1.70
2010,03,18,05,30,1.70
2010,03,18,05,31,1.70
2010,03,18,05,32,1.70
2010,03,18,05,33,1.70
2010,03,18,05,34,1.80
2010,03,18,05,35,1.80
2010,03,18,05,36,1.80
2010,03,18,05,37,1.80
2010,03,18,05,38,1.80
2010,03,18,05,39,1.80
2010,03,18,05,40,1.80
2010,03,18,05,41,1.80
2010,03,18,05,42,1.80
2010,03,18,05,43,1.80
2010,03,18,05,44,1.80
2010,03,18,05,45,1.80
2010,03,18,05,46,1.80
2010,03,18,05,47,1.80
2010,03,18,05,48,1.80
2010,03,18,05,49,1.80
2010,03,18,05,50,1.80
2010,03,18,05,51,1.80
2010,03,18,05,52,1.80
2010,03,18,05,53,1.80
2010,03,18,05,54,1.80
2010,03,18,05,55,1.80
2010,03,18,05,56,1.80
2010,03,18,05,57,1.80
2010,03,18,05,58,1.80
2010,03,18,05,59,1.80
2010,03,18,06,00,1.80
2010,03,18,06,01,1.80
2010,03,18,06,02,1.70
2010,03,18,06,03,1.70
2010,03,18,06,04,1.70
2010,03,18,06,05,1.70
2010,03,18,06,06,1.70
2010,03,18,06,07,1.70
2010,03,18,06,08,1.70
2010,03,18,06,09,1.70
2010,03,18,06,10,1.70
2010,03,18,06,11,1.70
2010,03,18,06,12,1.70
2010,03,18,06,13,1.70
2010,03,18,06,14,1.70
2010,03,18,06,15,1.70
2010,03,18,06,16,1.60
2010,03,18,06,17,1.60
2010,03,18,06,18,1.60
2010,03,18,06,19,1.60
2010,03,18,06,20,1.60
2010,03,18,06,21,1.50
2010,03,18,06,22,1.50
2010,03,18,06,23,1.50
2010,03,18,06,24,1.50
2010,03,18,06,25,1.40
2010,03,18,06,26,1.40
2010,03,18,06,27,1.40
2010,03,18,06,28,1.40
2010,03,18,06,29,1.40
2010,03,18,06,30,1.40
2010,03,18,06,31,1.40
2010,03,18,06,32,1.40
2010,03,18,06,33,1.50
2010,03,18,06,34,1.50
2010,03,18,06,35,1.60
2010,03,18,06,36,1.60
2010,03,18,06,37,1.60
2010,03,18,06,38,1.70
2010,03,18,06,39,1.70
2010,03,18,06,40,1.80
2010,03,18,06,41,1.80
2010,03,18,06,42,1.80
2010,03,18,06,43,1.80
2010,03,18,06,44,1.90
2010,03,18,06,45,1.90
2010,03,18,06,46,2.00
2010,03,18,06,47,2.10
2010,03,18,06,48,2.10
2010,03,18,06,49,2.10
2010,03,18,06,50,2.20
2010,03,18,06,51,2.20
2010,03,18,06,52,2.30
2010,03,18,06,53,2.30
2010,03,18,06,54,2.30
2010,03,18,06,55,2.40
2010,03,18,06,56,2.40
2010,03,18,06,57,2.50
2010,03,18,06,58,2.50
2010,03,18,06,59,2.60
2010,03,18,07,00,2.60
2010,03,18,07,01,2.70
2010,03,18,07,02,2.70
2010,03,18,07,03,2.70
2010,03,18,07,04,2.80
2010,03,18,07,05,2.90
2010,03,18,07,06,2.90
2010,03,18,07,07,2.90
2010,03,18,07,08,2.90
2010,03,18,07,09,2.90
2010,03,18,07,10,2.90
2010,03,18,07,11,2.90
2010,03,18,07,12,2.90
2010,03,18,07,13,2.90
2010,03,18,07,14,2.90
2010,03,18,07,15,3.10
2010,03,18,07,16,3.10
2010,03,18,07,17,3.10
2010,03,18,07,18,3.10
2010,03,18,07,19,3.10
2010,03,18,07,20,3.10
2010,03,18,07,21,3.10
2010,03,18,07,22,3.10
2010,03,18,07,23,3.10
2010,03,18,07,24,3.10
2010,03,18,07,25,3.10
2010,03,18,07,26,3.10
2010,03,18,07,27,3.10
2010,03,18,07,28,3.20
2010,03,18,07,29,3.20
2010,03,18,07,30,3.20
2010,03,18,07,31,3.20
2010,03,18,07,32,3.20
2010,03,18,07,33,3.20
2010,03,18,07,34,3.20
2010,03,18,07,35,3.20
2010,03,18,07,36,3.20
2010,03,18,07,37,3.20
2010,03,18,07,38,3.20
2010,03,18,07,39,3.20
2010,03,18,07,40,3.30
2010,03,18,07,41,3.30
2010,03,18,07,42,3.30
2010,03,18,07,43,3.30
2010,03,18,07,44,3.30
2010,03,18,07,45,3.30
2010,03,18,07,46,3.30
2010,03,18,07,47,3.30
2010,03,18,07,48,3.30
2010,03,18,07,49,3.30
2010,03,18,07,50,3.40
2010,03,18,07,51,3.40
2010,03,18,07,52,3.40
2010,03,18,07,53,3.50
2010,03,18,07,54,3.50
2010,03,18,07,55,3.50
2010,03,18,07,56,3.50
2010,03,18,07,57,3.60
2010,03,18,07,58,3.60
2010,03,18,07,59,3.60
2010,03,18,08,00,3.60
2010,03,18,08,01,3.70
2010,03,18,08,02,3.70
2010,03,18,08,03,3.80
2010,03,18,08,04,3.80
2010,03,18,08,05,3.80
2010,03,18,08,06,3.80
2010,03,18,08,07,3.80
2010,03,18,08,08,3.80
2010,03,18,08,09,3.90
2010,03,18,08,10,3.90
2010,03,18,08,11,3.90
2010,03,18,08,12,4.00
2010,03,18,08,13,4.00
2010,03,18,08,14,4.00
2010,03,18,08,15,4.10
2010,03,18,08,16,4.10
2010,03,18,08,17,4.10
2010,03,18,08,18,4.10
2010,03,18,08,19,4.20
2010,03,18,08,20,4.20
2010,03,18,08,21,4.20
2010,03,18,08,22,4.20
2010,03,18,08,23,4.20
2010,03,18,08,24,4.20
2010,03,18,08,25,4.20
2010,03,18,08,26,4.30
2010,03,18,08,27,4.30
2010,03,18,08,28,4.30
2010,03,18,08,29,4.30
2010,03,18,08,30,4.30
2010,03,18,08,31,4.30
2010,03,18,08,32,4.40
2010,03,18,08,33,4.40
2010,03,18,08,34,4.40
2010,03,18,08,35,4.40
2010,03,18,08,36,4.40
2010,03,18,08,37,4.40
2010,03,18,08,38,4.40
2010,03,18,08,39,4.40
2010,03,18,08,40,4.40
2010,03,18,08,41,4.40
2010,03,18,08,42,4.50
2010,03,18,08,43,4.50
2010,03,18,08,44,4.50
2010,03,18,08,45,4.50
2010,03,18,08,46,4.50
2010,03,18,08,47,4.50
2010,03,18,08,48,4.50
2010,03,18,08,49,4.50
2010,03,18,08,50,4.50
2010,03,18,08,51,4.50
2010,03,18,08,52,4.60
2010,03,18,08,53,4.60
2010,03,18,08,54,4.60
2010,03,18,08,55,4.60
2010,03,18,08,56,4.60
2010,03,18,08,57,4.60
2010,03,18,08,58,4.60
2010,03,18,08,59,4.60
2010,03,18,09,00,4.60
2010,03,18,09,01,4.60
2010,03,18,09,02,4.60
2010,03,18,09,03,4.60
2010,03,18,09,04,4.60
2010,03,18,09,05,4.60
2010,03,18,09,06,4.60
2010,03,18,09,07,4.60
2010,03,18,09,08,4.70
2010,03,18,09,09,4.70
2010,03,18,09,10,4.70
2010,03,18,09,11,4.80
2010,03,18,09,12,4.80
2010,03,18,09,13,4.80
2010,03,18,09,14,4.80
2010,03,18,09,15,4.80
2010,03,18,09,16,4.80
2010,03,18,09,17,4.90
2010,03,18,09,18,4.90
2010,03,18,09,19,4.90
2010,03,18,09,20,4.90
2010,03,18,09,21,5.00
2010,03,18,09,22,5.10
2010,03,18,09,23,5.10
2010,03,18,09,24,5.10
2010,03,18,09,25,5.10
2010,03,18,09,26,5.10
2010,03,18,09,27,5.20
2010,03,18,09,28,5.30
2010,03,18,09,29,5.30
2010,03,18,09,30,5.30
2010,03,18,09,31,5.30
2010,03,18,09,32,5.30
2010,03,18,09,33,5.30
2010,03,18,09,34,5.30
2010,03,18,09,35,5.30
2010,03,18,09,36,5.30
2010,03,18,09,37,5.30
2010,03,18,09,38,5.30
2010,03,18,09,39,5.30
2010,03,18,09,40,5.30
2010,03,18,09,41,5.30
2010,03,18,09,42,5.30
2010,03,18,09,43,5.30
2010,03,18,09,44,5.40
2010,03,18,09,45,5.40
2010,03,18,09,46,5.40
2010,03,18,09,47,5.50
2010,03,18,09,48,5.50
2010,03,18,09,49,5.40
2010,03,18,09,50,5.40
2010,03,18,09,51,5.40
2010,03,18,09,52,5.40
2010,03,18,09,53,5.40
2010,03,18,09,54,5.40
2010,03,18,09,55,5.40
2010,03,18,09,56,5.50
2010,03,18,09,57,5.50
2010,03,18,09,58,5.50
2010,03,18,09,59,5.50
2010,03,18,10,00,5.60
2010,03,18,10,01,5.60
2010,03,18,10,02,5.60
2010,03,18,10,03,5.60
2010,03,18,10,04,5.60
2010,03,18,10,05,5.70
2010,03,18,10,06,5.70
2010,03,18,10,07,5.70
2010,03,18,10,08,5.70
2010,03,18,10,09,5.70
2010,03,18,10,10,5.70
2010,03,18,10,11,5.70
2010,03,18,10,12,5.70
2010,03,18,10,13,5.70
2010,03,18,10,14,5.70
2010,03,18,10,15,5.70
2010,03,18,10,16,5.70
2010,03,18,10,17,5.80
2010,03,18,10,18,5.80
2010,03,18,10,19,5.80
2010,03,18,10,20,5.80
2010,03,18,10,21,5.80
2010,03,18,10,22,5.80
2010,03,18,10,23,5.90
2010,03,18,10,24,5.90
2010,03,18,10,25,5.90
2010,03,18,10,26,6.00
2010,03,18,10,27,6.00
2010,03,18,10,28,6.00
2010,03,18,10,29,6.00
2010,03,18,10,30,6.00
2010,03,18,10,31,6.10
2010,03,18,10,32,6.10
2010,03,18,10,33,6.10
2010,03,18,10,34,6.10
2010,03,18,10,35,6.20
2010,03,18,10,36,6.20
2010,03,18,10,37,6.20
2010,03,18,10,38,6.20
2010,03,18,10,39,6.20
2010,03,18,10,40,6.20
2010,03,18,10,41,6.30
2010,03,18,10,42,6.30
2010,03,18,10,43,6.30
2010,03,18,10,44,6.30
2010,03,18,10,45,6.30
2010,03,18,10,46,6.30
2010,03,18,10,47,6.30
2010,03,18,10,48,6.30
2010,03,18,10,49,6.40
2010,03,18,10,50,6.40
2010,03,18,10,51,6.40
2010,03,18,10,52,6.40
2010,03,18,10,53,6.40
2010,03,18,10,54,6.40
2010,03,18,10,55,6.30
2010,03,18,10,56,6.30
2010,03,18,10,57,6.30
2010,03,18,10,58,6.40
2010,03,18,10,59,6.40
2010,03,18,11,00,6.40
2010,03,18,11,01,6.40
2010,03,18,11,02,6.40
2010,03,18,11,03,6.40
2010,03,18,11,04,6.40
2010,03,18,11,05,6.40
2010,03,18,11,06,6.40
2010,03,18,11,07,6.50
2010,03,18,11,08,6.60
2010,03,18,11,09,6.60
2010,03,18,11,10,6.60
2010,03,18,11,11,6.60
2010,03,18,11,12,6.60
2010,03,18,11,13,6.60
2010,03,18,11,14,6.60
2010,03,18,11,15,6.60
2010,03,18,11,16,6.60
2010,03,18,11,17,6.60
2010,03,18,11,18,6.70
2010,03,18,11,19,6.80
2010,03,18,11,20,6.80
2010,03,18,11,21,6.80
2010,03,18,11,22,6.80
2010,03,18,11,23,6.80
2010,03,18,11,24,6.80
2010,03,18,11,25,6.70
2010,03,18,11,26,6.70
2010,03,18,11,27,6.60
2010,03,18,11,28,6.60
2010,03,18,11,29,6.50
2010,03,18,11,30,6.40
2010,03,18,11,31,6.50
2010,03,18,11,32,6.40
2010,03,18,11,33,6.50
2010,03,18,11,34,6.60
2010,03,18,11,35,6.60
2010,03,18,11,36,6.60
2010,03,18,11,37,6.60
2010,03,18,11,38,6.60
2010,03,18,11,39,6.60
2010,03,18,11,40,6.60
2010,03,18,11,41,6.50
2010,03,18,11,42,6.40
2010,03,18,11,43,6.40
2010,03,18,11,44,6.40
2010,03,18,11,45,6.50
2010,03,18,11,46,6.60
2010,03,18,11,47,6.60
2010,03,18,11,48,6.60
2010,03,18,11,49,6.80
2010,03,18,11,50,6.80
2010,03,18,11,51,6.80
2010,03,18,11,52,6.80
2010,03,18,11,53,6.80
2010,03,18,11,54,6.80
2010,03,18,11,55,6.80
2010,03,18,11,56,6.80
2010,03,18,11,57,6.80
2010,03,18,11,58,6.80
2010,03,18,11,59,6.80
2010,03,18,12,00,6.80
2010,03,18,12,01,6.80
2010,03,18,12,02,6.80
2010,03,18,12,03,6.80
2010,03,18,12,04,6.80
2010,03,18,12,05,6.80
2010,03,18,12,06,6.80
2010,03,18,12,07,6.90
2010,03,18,12,08,7.00
2010,03,18,12,09,7.00
2010,03,18,12,10,7.10
2010,03,18,12,11,7.20
2010,03,18,12,12,7.20
2010,03,18,12,13,7.20
2010,03,18,12,14,7.20
2010,03,18,12,15,7.20
2010,03,18,12,16,7.10
2010,03,18,12,17,7.10
2010,03,18,12,18,7.10
2010,03,18,12,19,7.00
2010,03,18,12,20,6.90
2010,03,18,12,21,6.90
2010,03,18,12,22,6.80
2010,03,18,12,23,6.80
2010,03,18,12,24,6.80
2010,03,18,12,25,6.90
2010,03,18,12,26,6.90
2010,03,18,12,27,6.90
2010,03,18,12,28,7.00
2010,03,18,12,29,7.10
2010,03,18,12,30,7.10
2010,03,18,12,31,7.30
2010,03,18,12,32,7.30
2010,03,18,12,33,7.40
2010,03,18,12,34,7.40
2010,03,18,12,35,7.40
2010,03,18,12,36,7.50
2010,03,18,12,37,7.50
2010,03,18,12,38,7.50
2010,03,18,12,39,7.50
2010,03,18,12,40,7.50
2010,03,18,12,41,7.60
2010,03,18,12,42,7.70
2010,03,18,12,43,7.80
2010,03,18,12,44,7.80
2010,03,18,12,45,7.90
2010,03,18,12,46,8.00
2010,03,18,12,47,8.00
2010,03,18,12,48,8.00
2010,03,18,12,49,7.90
2010,03,18,12,50,7.80
2010,03,18,12,51,7.80
2010,03,18,12,52,7.70
2010,03,18,12,53,7.60
2010,03,18,12,54,7.50
2010,03,18,12,55,7.40
2010,03,18,12,56,7.30
2010,03,18,12,57,7.30
2010,03,18,12,58,7.30
2010,03,18,12,59,7.30
2010,03,18,13,00,7.30
2010,03,18,13,01,7.30
2010,03,18,13,02,7.30
2010,03,18,13,03,7.30
2010,03,18,13,04,7.30
2010,03,18,13,05,7.40
2010,03,18,13,06,7.40
2010,03,18,13,07,7.40
2010,03,18,13,08,7.60
2010,03,18,13,09,7.70
2010,03,18,13,10,7.80
2010,03,18,13,11,7.90
2010,03,18,13,12,8.00
2010,03,18,13,13,8.00
2010,03,18,13,14,8.10
2010,03,18,13,15,8.10
2010,03,18,13,16,7.90
2010,03,18,13,17,7.90
2010,03,18,13,18,7.90
2010,03,18,13,19,7.90
2010,03,18,13,20,8.10
2010,03,18,13,21,8.10
2010,03,18,13,22,8.20
2010,03,18,13,23,8.20
2010,03,18,13,24,8.20
2010,03,18,13,25,8.00
2010,03,18,13,26,8.00
2010,03,18,13,27,7.90
2010,03,18,13,28,7.90
2010,03,18,13,29,8.00
2010,03,18,13,30,8.10
2010,03,18,13,31,8.10
2010,03,18,13,32,8.20
2010,03,18,13,33,8.20
2010,03,18,13,34,8.20
2010,03,18,13,35,8.20
2010,03,18,13,36,8.20
2010,03,18,13,37,8.30
2010,03,18,13,38,8.30
2010,03,18,13,39,8.30
2010,03,18,13,40,8.30
2010,03,18,13,41,8.30
2010,03,18,13,42,8.40
2010,03,18,13,43,8.40
2010,03,18,13,44,8.40
2010,03,18,13,45,8.40
2010,03,18,13,46,8.30
2010,03,18,13,47,8.20
2010,03,18,13,48,8.20
2010,03,18,13,49,8.20
2010,03,18,13,50,8.20
2010,03,18,13,51,8.20
2010,03,18,13,52,8.10
2010,03,18,13,53,8.00
2010,03,18,13,54,8.00
2010,03,18,13,55,7.90
2010,03,18,13,56,8.00
2010,03,18,13,57,8.10
2010,03,18,13,58,8.20
2010,03,18,13,59,8.20
2010,03,18,14,00,8.00
2010,03,18,14,01,7.90
2010,03,18,14,02,7.90
2010,03,18,14,03,8.00
2010,03,18,14,04,8.10
2010,03,18,14,05,8.10
2010,03,18,14,06,8.00
2010,03,18,14,07,7.90
2010,03,18,14,08,8.00
2010,03,18,14,09,8.00
2010,03,18,14,10,8.00
2010,03,18,14,11,8.00
2010,03,18,14,12,8.00
2010,03,18,14,13,8.00
2010,03,18,14,14,8.10
2010,03,18,14,15,8.20
2010,03,18,14,16,8.30
2010,03,18,14,17,8.40
2010,03,18,14,18,8.50
2010,03,18,14,19,8.50
2010,03,18,14,20,8.40
2010,03,18,14,21,8.40
2010,03,18,14,22,8.30
2010,03,18,14,23,8.30
2010,03,18,14,24,8.20
2010,03,18,14,25,8.20
2010,03,18,14,26,8.30
2010,03,18,14,27,8.30
2010,03,18,14,28,8.30
2010,03,18,14,29,8.40
2010,03,18,14,30,8.40
2010,03,18,14,31,8.40
2010,03,18,14,32,8.40
2010,03,18,14,33,8.30
2010,03,18,14,34,8.40
2010,03,18,14,35,8.40
2010,03,18,14,36,8.40
2010,03,18,14,37,8.40
2010,03,18,14,38,8.40
2010,03,18,14,39,8.50
2010,03,18,14,40,8.50
2010,03,18,14,41,8.60
2010,03,18,14,42,8.70
2010,03,18,14,43,8.70
2010,03,18,14,44,8.70
2010,03,18,14,45,8.70
2010,03,18,14,46,8.70
2010,03,18,14,47,8.70
2010,03,18,14,48,8.60
2010,03,18,14,49,8.60
2010,03,18,14,50,8.60
2010,03,18,14,51,8.60
2010,03,18,14,52,8.60
2010,03,18,14,53,8.60
2010,03,18,14,54,8.70
2010,03,18,14,55,8.70
2010,03,18,14,56,8.70
2010,03,18,14,57,8.80
2010,03,18,14,58,8.90
2010,03,18,14,59,9.00
2010,03,18,15,00,9.00
2010,03,18,15,01,9.00
2010,03,18,15,02,9.00
2010,03,18,15,03,9.00
2010,03,18,15,04,9.00
2010,03,18,15,05,9.00
2010,03,18,15,06,9.00
2010,03,18,15,07,9.00
2010,03,18,15,08,8.90
2010,03,18,15,09,8.80
2010,03,18,15,10,8.80
2010,03,18,15,11,8.90
2010,03,18,15,12,9.00
2010,03,18,15,13,9.10
2010,03,18,15,14,9.10
2010,03,18,15,15,9.10
2010,03,18,15,16,9.10
2010,03,18,15,17,9.10
2010,03,18,15,18,9.10
2010,03,18,15,19,9.20
2010,03,18,15,20,9.10
2010,03,18,15,21,9.10
2010,03,18,15,22,9.10
2010,03,18,15,23,9.10
2010,03,18,15,24,9.10
2010,03,18,15,25,9.20
2010,03,18,15,26,9.20
2010,03,18,15,27,9.20
2010,03,18,15,28,9.20
2010,03,18,15,29,9.30
2010,03,18,15,30,9.40
2010,03,18,15,31,9.60
2010,03,18,15,32,9.70
2010,03,18,15,33,9.70
2010,03,18,15,34,9.70
2010,03,18,15,35,9.70
2010,03,18,15,36,9.50
2010,03,18,15,37,9.50
2010,03,18,15,38,9.50
2010,03,18,15,39,9.50
2010,03,18,15,40,9.40
2010,03,18,15,41,9.40
2010,03,18,15,42,9.20
2010,03,18,15,43,9.20
2010,03,18,15,44,9.10
2010,03,18,15,45,9.10
2010,03,18,15,46,9.10
2010,03,18,15,47,9.10
2010,03,18,15,48,9.00
2010,03,18,15,49,8.90
2010,03,18,15,50,8.90
2010,03,18,15,51,8.80
2010,03,18,15,52,8.70
2010,03,18,15,53,8.70
2010,03,18,15,54,8.80
2010,03,18,15,55,8.90
2010,03,18,15,56,9.00
2010,03,18,15,57,9.00
2010,03,18,15,58,9.00
2010,03,18,15,59,9.00
2010,03,18,16,00,9.10
2010,03,18,16,01,9.20
2010,03,18,16,02,9.20
2010,03,18,16,03,9.20
2010,03,18,16,04,9.20
2010,03,18,16,05,9.20
2010,03,18,16,06,9.20
2010,03,18,16,07,9.20
2010,03,18,16,08,9.20
2010,03,18,16,09,9.20
2010,03,18,16,10,9.30
2010,03,18,16,11,9.50
2010,03,18,16,12,9.50
2010,03,18,16,13,9.50
2010,03,18,16,14,9.70
2010,03,18,16,15,9.80
2010,03,18,16,16,9.90
2010,03,18,16,17,9.90
2010,03,18,16,18,9.90
2010,03,18,16,19,10.00
2010,03,18,16,20,10.10
2010,03,18,16,21,10.10
2010,03,18,16,22,10.10
2010,03,18,16,23,10.20
2010,03,18,16,24,10.10
2010,03,18,16,25,10.00
2010,03,18,16,26,9.90
2010,03,18,16,27,9.90
2010,03,18,16,28,10.00
2010,03,18,16,29,10.10
2010,03,18,16,30,10.10
2010,03,18,16,31,10.10
2010,03,18,16,32,10.00
2010,03,18,16,33,9.90
2010,03,18,16,34,9.90
2010,03,18,16,35,9.90
2010,03,18,16,36,9.90
2010,03,18,16,37,10.00
2010,03,18,16,38,10.10
2010,03,18,16,39,10.10
2010,03,18,16,40,10.20
2010,03,18,16,41,10.20
2010,03,18,16,42,10.20
2010,03,18,16,43,10.20
2010,03,18,16,44,10.10
2010,03,18,16,45,10.10
2010,03,18,16,46,9.90
2010,03,18,16,47,9.90
2010,03,18,16,48,9.90
2010,03,18,16,49,9.90
2010,03,18,16,50,9.80
2010,03,18,16,51,9.80
2010,03,18,16,52,9.80
2010,03,18,16,53,9.80
2010,03,18,16,54,9.80
2010,03,18,16,55,9.80
2010,03,18,16,56,9.70
2010,03,18,16,57,9.70
2010,03,18,16,58,9.60
2010,03,18,16,59,9.50
2010,03,18,17,00,9.50
2010,03,18,17,01,9.50
2010,03,18,17,02,9.50
2010,03,18,17,03,9.30
2010,03,18,17,04,9.20
2010,03,18,17,05,9.20
2010,03,18,17,06,9.20
2010,03,18,17,07,9.20
2010,03,18,17,08,9.20
2010,03,18,17,09,9.30
2010,03,18,17,10,9.30
2010,03,18,17,11,9.40
2010,03,18,17,12,9.50
2010,03,18,17,13,9.60
2010,03,18,17,14,9.60
2010,03,18,17,15,9.70
2010,03,18,17,16,9.70
2010,03,18,17,17,9.70
2010,03,18,17,18,9.70
2010,03,18,17,19,9.70
2010,03,18,17,20,9.60
2010,03,18,17,21,9.60
2010,03,18,17,22,9.60
2010,03,18,17,23,9.60
2010,03,18,17,24,9.60
2010,03,18,17,25,9.60
2010,03,18,17,26,9.70
2010,03,18,17,27,9.70
2010,03,18,17,28,9.80
2010,03,18,17,29,9.90
2010,03,18,17,30,10.10
2010,03,18,17,31,10.10
2010,03,18,17,32,10.10
2010,03,18,17,33,10.10
2010,03,18,17,34,10.10
2010,03,18,17,35,10.10
2010,03,18,17,36,10.10
2010,03,18,17,37,10.10
2010,03,18,17,38,10.00
2010,03,18,17,39,9.90
2010,03,18,17,40,9.90
2010,03,18,17,41,9.90
2010,03,18,17,42,9.90
2010,03,18,17,43,9.90
2010,03,18,17,44,9.90
2010,03,18,17,45,9.90
2010,03,18,17,46,9.90
2010,03,18,17,47,9.90
2010,03,18,17,48,9.90
2010,03,18,17,49,9.90
2010,03,18,17,50,9.90
2010,03,18,17,51,9.90
2010,03,18,17,52,9.80
2010,03,18,17,53,9.70
2010,03,18,17,54,9.70
2010,03,18,17,55,9.60
2010,03,18,17,56,9.50
2010,03,18,17,57,9.40
2010,03,18,17,58,9.30
2010,03,18,17,59,9.20
2010,03,18,18,00,9.20
2010,03,18,18,01,9.20
2010,03,18,18,02,9.20
2010,03,18,18,03,9.20
2010,03,18,18,04,9.20
2010,03,18,18,05,9.20
2010,03,18,18,06,9.20
2010,03,18,18,07,9.30
2010,03,18,18,08,9.30
2010,03,18,18,09,9.40
2010,03,18,18,10,9.40
2010,03,18,18,11,9.40
2010,03,18,18,12,9.50
2010,03,18,18,13,9.50
2010,03,18,18,14,9.50
2010,03,18,18,15,9.50
2010,03,18,18,16,9.50
2010,03,18,18,17,9.50
2010,03,18,18,18,9.40
2010,03,18,18,19,9.30
2010,03,18,18,20,9.30